User: anonymous   Login
Location: ??????
(55.6500°N, 37.8000°E)
Time: 02:08:54
(UTC+00:00)
Language:

Cosmos 1092 Rocket - Orbit

View from above orbital plane
View from above orbital plane
View from above satellite
View from above satellite

Ground track
Ground track

The orbit data is extracted from the following two-line orbital elements,

1 11327U 79030B   24174.58011521 -.00000006  00000-0 -21776-4 0  9999
2 11327  82.9496 193.2944 0027066 203.6249 271.2382 13.77079094271555
Epoch (UTC): 22 June 2024 13:55:21
Eccentricity: 0.0027066
inclination: 82.9496°
perigee height: 954 km
apogee height: 994 km
right ascension of ascending node: 193.2944°
argument of perigee: 203.6249°
revolutions per day: 13.77079094
mean anomaly at epoch: 271.2382°
orbit number at epoch: 27155

The dashed part of the orbit path shows where the satellite is in the earth's shadow,  

DLR